TimeEET,TemperatureF,Dew PointF,Humidity,Sea Level PressureIn,VisibilityMPH,Wind Direction,Wind SpeedMPH,Gust SpeedMPH,PrecipitationIn,Events,Conditions,WindDirDegrees,DateUTC
12:20 AM,39.2,30.2,70,30.12,6.2,NE,6.9,-,N/A,,Scattered Clouds,50,2013-02-18 22:20:00
12:50 AM,39.2,32.0,75,30.12,6.2,NE,6.9,-,N/A,,Scattered Clouds,50,2013-02-18 22:50:00
1:20 AM,41.0,30.2,65,30.12,6.2,ENE,8.1,-,N/A,,Partly Cloudy,60,2013-02-18 23:20:00
1:50 AM,39.2,30.2,70,30.12,-9999.0,NE,6.9,-,N/A,,Clear,50,2013-02-18 23:50:00
2:00 AM,39,31,65,30.15,6,NE,6.9,,,,,50,2013-02-19 00:00:00
2:20 AM,41.0,32.0,70,30.12,-9999.0,ENE,6.9,-,N/A,,Clear,60,2013-02-19 00:20:00
2:50 AM,39.2,30.2,70,30.12,-9999.0,ENE,4.6,-,N/A,,Clear,70,2013-02-19 00:50:00
3:20 AM,39.2,30.2,70,30.12,-9999.0,ENE,3.5,-,N/A,,Clear,70,2013-02-19 01:20:00
3:50 AM,39.2,30.2,70,30.12,-9999.0,ENE,4.6,-,N/A,,Clear,70,2013-02-19 01:50:00
4:20 AM,37.4,30.2,75,30.12,-9999.0,NE,5.8,-,N/A,,Clear,50,2013-02-19 02:20:00
4:50 AM,37.4,30.2,75,30.12,-9999.0,NE,4.6,-,N/A,,Clear,50,2013-02-19 02:50:00
5:20 AM,37.4,30.2,75,30.12,-9999.0,ENE,5.8,-,N/A,,Clear,70,2013-02-19 03:20:00
5:50 AM,37.4,30.2,75,30.09,-9999.0,ENE,5.8,-,N/A,,Clear,60,2013-02-19 03:50:00
6:20 AM,37.4,30.2,75,30.09,-9999.0,ENE,5.8,-,N/A,,Clear,70,2013-02-19 04:20:00
6:50 AM,37.4,30.2,75,30.09,6.2,ENE,6.9,-,N/A,,Partly Cloudy,70,2013-02-19 04:50:00
7:20 AM,39.2,30.2,70,30.09,6.2,East,5.8,-,N/A,,Partly Cloudy,80,2013-02-19 05:20:00
7:50 AM,39.2,30.2,70,30.09,6.2,ENE,6.9,-,N/A,,Partly Cloudy,60,2013-02-19 05:50:00
8:20 AM,41.0,30.2,65,30.09,6.2,Variable,5.8,-,N/A,,Partly Cloudy,0,2013-02-19 06:20:00
8:50 AM,41.0,30.2,65,30.09,-9999.0,East,5.8,-,N/A,,Clear,90,2013-02-19 06:50:00
9:20 AM,41.0,30.2,65,30.09,-9999.0,East,6.9,-,N/A,,Clear,100,2013-02-19 07:20:00
9:50 AM,42.8,30.2,61,30.06,-9999.0,East,8.1,-,N/A,,Clear,100,2013-02-19 07:50:00
10:20 AM,44.6,30.2,57,30.06,-9999.0,East,8.1,-,N/A,,Clear,90,2013-02-19 08:20:00
10:50 AM,44.6,30.2,57,30.06,-9999.0,East,8.1,-,N/A,,Clear,100,2013-02-19 08:50:00
11:20 AM,46.4,30.2,53,30.06,-9999.0,East,6.9,-,N/A,,Clear,90,2013-02-19 09:20:00
11:50 AM,46.4,26.6,46,30.04,-9999.0,East,6.9,-,N/A,,Clear,100,2013-02-19 09:50:00
12:20 PM,48.2,24.8,40,30.04,-9999.0,ESE,8.1,-,N/A,,Clear,110,2013-02-19 10:20:00
12:50 PM,48.2,23.0,37,30.04,-9999.0,ESE,6.9,-,N/A,,Clear,120,2013-02-19 10:50:00
1:20 PM,48.2,21.2,34,30.01,-9999.0,ESE,6.9,-,N/A,,Clear,110,2013-02-19 11:20:00
1:50 PM,50.0,21.2,32,29.98,-9999.0,East,5.8,-,N/A,,Clear,100,2013-02-19 11:50:00
2:00 PM,50,22,20,30.01,6,East,5.8,,,,Clear,100,2013-02-19 12:00:00
2:20 PM,50.0,23.0,35,29.98,-9999.0,East,5.8,-,N/A,,Clear,100,2013-02-19 12:20:00
2:50 PM,50.0,24.8,37,29.95,-9999.0,ESE,6.9,-,N/A,,Clear,110,2013-02-19 12:50:00
3:20 PM,50.0,24.8,37,29.95,-9999.0,ESE,4.6,-,N/A,,Clear,120,2013-02-19 13:20:00
3:50 PM,48.2,28.4,46,29.95,6.2,SE,4.6,-,N/A,,Mostly Cloudy,130,2013-02-19 13:50:00
4:20 PM,48.2,28.4,46,29.95,6.2,Variable,2.3,-,N/A,,Mostly Cloudy,0,2013-02-19 14:20:00
4:50 PM,48.2,30.2,50,29.92,-9999.0,NNE,10.4,-,N/A,,Clear,30,2013-02-19 14:50:00
5:20 PM,48.2,28.4,46,29.92,6.2,NNE,11.5,-,N/A,,Mostly Cloudy,30,2013-02-19 15:20:00
5:50 PM,46.4,26.6,46,29.92,6.2,NNE,10.4,-,N/A,,Mostly Cloudy,30,2013-02-19 15:50:00
6:20 PM,46.4,26.6,46,29.92,6.2,NNE,10.4,-,N/A,,Mostly Cloudy,30,2013-02-19 16:20:00
6:50 PM,46.4,24.8,43,29.92,6.2,ENE,12.7,-,N/A,,Mostly Cloudy,60,2013-02-19 16:50:00
7:20 PM,44.6,24.8,46,29.92,4.3,ENE,9.2,-,N/A,Rain,Light Rain Showers,70,2013-02-19 17:20:00
7:50 PM,44.6,28.4,53,29.89,4.3,NE,11.5,-,N/A,Rain,Light Rain Showers,50,2013-02-19 17:50:00
8:00 PM,44,28,40,29.91,4,NE,11.5,,,Rain,Light Rain Showers,50,2013-02-19 18:00:00
8:20 PM,42.8,30.2,61,29.89,4.3,NE,10.4,-,N/A,Rain,Light Rain Showers,50,2013-02-19 18:20:00
8:50 PM,42.8,30.2,61,29.86,4.3,ENE,13.8,-,N/A,Rain,Light Rain Showers,60,2013-02-19 18:50:00
9:20 PM,41.0,32.0,70,29.86,4.3,NE,15.0,-,N/A,Rain,Light Rain Showers,50,2013-02-19 19:20:00
9:50 PM,41.0,33.8,76,29.86,5.0,ENE,13.8,-,N/A,Rain,Light Rain Showers,60,2013-02-19 19:50:00
10:20 PM,41.0,33.8,76,29.86,5.0,ENE,13.8,-,N/A,Rain,Light Rain Showers,70,2013-02-19 20:20:00
10:50 PM,41.0,35.6,81,29.86,3.7,ENE,11.5,-,N/A,Rain,Light Rain Showers,70,2013-02-19 20:50:00
11:20 PM,41.0,35.6,81,29.83,3.7,ENE,9.2,-,N/A,Rain,Light Rain Showers,60,2013-02-19 21:20:00
11:50 PM,39.2,35.6,87,29.83,4.3,NE,10.4,-,N/A,Rain,Light Rain Showers,50,2013-02-19 21:50:00